Weather History for Millinocket, ME

Change the Weather History Date:

Thursday, July 3, 2014

  Actual Average Record
Temperature  
Mean Temperature 79 °F 67 °F  
Max Temperature 88 °F 78 °F 96 °F (1921)
Min Temperature 70 °F 57 °F 37 °F (1933)
Degree Days  
Heating Degree Days 0 1  
Month to date heating degree days 0 3  
Since 1 June heating degree days 76 119  
Since 1 July heating degree days 0 3  
Cooling Degree Days 14 3  
Month to date cooling degree days 45 9  
Year to date cooling degree days 105 64  
Since 1 June cooling degree days 103 58  
Growing Degree Days 28 (Base 50)    
Moisture  
Dew Point 68 °F    
Average Humidity 73    
Maximum Humidity 90    
Minimum Humidity 55    
Precipitation  
Precipitation 0.01 in 0.14 in 1.81 in (1904)
Month to date precipitation 0.06 0.40  
Year to date precipitation 18.53 19.54  
Sea Level Pressure  
Sea Level Pressure 29.93 in    
Wind  
Wind Speed 3 mph (SW)    
Max Wind Speed 14 mph    
Max Gust Speed 22 mph    
Visibility 10 miles    
Events Thunderstorm    
T = Trace of Precipitation, MM = Missing Value Source: NWS Daily Summary

Daily Weather History Graph

Daily Weather History Graph

Search for Another Location

Airport:

Trip Planner

Search our weather history database for the weather conditions in past years. The results will help you decide how hot, cold, wet, or windy it might be!

Date:

Astronomy

Jul. 03, 2014 Rise Set
Actual Time 4:50 AM EDT 8:27 PM EDT
Civil Twilight 4:12 AM EDT 9:04 PM EDT
Nautical Twilight 3:22 AM EDT 9:55 PM EDT
Astronomical Twilight 2:15 AM EDT 11:02 PM EDT
Moon 11:05 AM EDT (7/3) 11:27 PM EDT (7/3)
Length of Visible Light 16h 52m
Length of Day
15h 36m
Waxing Crescent, 33% of the Moon is Illuminated
Jul 3
Waxing Crescent
Jul 5
First Quarter
Jul 12
Full
Jul 18
Last Quarter
Jul 26
New

Hourly Weather History & Observations

Time (EDT) Temp. Heat Index Dew Point Humidity Pressure Visibility Wind Dir Wind Speed Gust Speed Precip Events Conditions
12:53 AM 70.0 °F - 66.9 °F 90% 29.88 in 10.0 mi Variable 3.5 mph - N/A   Clear
1:53 AM 70.0 °F - 66.0 °F 87% 29.89 in 10.0 mi Calm Calm - N/A   Partly Cloudy
2:25 AM 70.0 °F - 66.0 °F 87% 29.89 in 10.0 mi Calm Calm - N/A   Mostly Cloudy
2:53 AM 70.0 °F - 66.0 °F 87% 29.90 in 10.0 mi Variable 5.8 mph - N/A   Overcast
3:53 AM 70.0 °F - 66.0 °F 87% 29.90 in 10.0 mi Variable 3.5 mph - N/A   Overcast
4:53 AM 70.0 °F - 66.0 °F 87% 29.91 in 10.0 mi Variable 3.5 mph - N/A   Overcast
5:53 AM 71.1 °F - 66.9 °F 87% 29.94 in 10.0 mi Calm Calm - N/A   Overcast
6:53 AM 72.0 °F - 66.9 °F 84% 29.95 in 10.0 mi Calm Calm - N/A   Mostly Cloudy
7:04 AM 72.0 °F - 66.9 °F 84% 29.94 in 10.0 mi Calm Calm - N/A   Scattered Clouds
7:53 AM 73.9 °F - 68.0 °F 82% 29.96 in 10.0 mi Variable 3.5 mph - N/A   Clear
8:53 AM 79.0 °F - 70.0 °F 74% 29.96 in 10.0 mi NW 4.6 mph - N/A   Clear
10:53 AM 82.9 °F 87.0 °F 70.0 °F 65% 29.95 in 10.0 mi South 5.8 mph - N/A   Partly Cloudy
11:53 AM 84.0 °F 87.0 °F 68.0 °F 58% 29.95 in 10.0 mi Calm Calm - N/A   Partly Cloudy
12:53 PM 86.0 °F 90.7 °F 70.0 °F 59% 29.95 in 10.0 mi SE 4.6 mph - N/A   Scattered Clouds
1:53 PM 84.9 °F 89.4 °F 70.0 °F 61% 29.95 in 10.0 mi Variable 6.9 mph - N/A   Scattered Clouds
3:53 PM 87.1 °F 91.3 °F 69.1 °F 55% 29.94 in 10.0 mi Variable 6.9 mph - N/A   Clear
4:35 PM 84.9 °F 87.1 °F 66.0 °F 53% 29.93 in 10.0 mi South 4.6 mph - N/A Thunderstorm Clear
4:53 PM 82.9 °F 84.6 °F 64.9 °F 54% 29.96 in 10.0 mi West 12.7 mph 21.9 mph N/A Thunderstorm Partly Cloudy
5:02 PM 80.1 °F 82.1 °F 66.0 °F 62% 29.95 in 10.0 mi WNW 13.8 mph 20.7 mph N/A   Scattered Clouds
5:53 PM 75.9 °F - 64.9 °F 69% 29.94 in 10.0 mi NW 6.9 mph - N/A   Mostly Cloudy
6:53 PM 78.1 °F - 66.0 °F 66% 29.92 in 10.0 mi Calm Calm - N/A   Clear
7:53 PM 73.9 °F - 69.1 °F 85% 29.95 in 10.0 mi Calm Calm - N/A   Clear
8:53 PM 73.0 °F - 68.0 °F 84% 29.93 in 10.0 mi Calm Calm - N/A   Mostly Cloudy
9:53 PM 73.0 °F - 68.0 °F 84% 29.94 in 10.0 mi Calm Calm - N/A   Partly Cloudy
10:26 PM 73.0 °F - 68.0 °F 84% 29.93 in 10.0 mi Calm Calm - N/A   Overcast
10:46 PM 73.0 °F - 68.0 °F 84% 29.93 in 10.0 mi Calm Calm - N/A   Mostly Cloudy
10:53 PM 72.0 °F - 68.0 °F 87% 29.94 in 10.0 mi Calm Calm - N/A   Mostly Cloudy
11:32 PM 73.0 °F - 69.1 °F 87% 29.92 in 10.0 mi Variable 4.6 mph - N/A   Overcast
11:53 PM 73.9 °F - 69.1 °F 85% 29.93 in 10.0 mi SSE 5.8 mph - N/A   Overcast